Terminal Aerodrome Forecast
Issued by NWS

Home | Current Version | Previous Version | Graphics & Text | Print | Product List | Glossary On
Versions: 1 2 3 4 5 6 7 8 9 10 11 12 13 14 15 16 17 18 19 20
000
FTUS43 KOAX 160208 AAA
TAFCDR
TAF AMD
KCDR 160208Z 1602/1624 VRB03KT P6SM OVC020
     FM161000 27007KT 1SM BR OVC015
     FM161500 13005KT P6SM OVC035
     FM162000 14008KT P6SM BKN060=

USA.gov is the U.S. government's official web portal to all federal, state and local government web resources and services.